Cloud_Cover
100 24 31 97 86 85 99 99 83 98 62 99 100 82 85 100 100 100 100 100 100 98 100 100 12 5 5 5 5 5 58 52 11 42 0 0 0 0 1 0 1 3 5 5 25 24 7 4 5
100 98 19 40 74 92 93 84 88 70 87 37 88 100 100 100 100 100 100 100 100 34 7 5 3 4 4 5 4 0 5 40 65 0 0 0 0 4 1 0 0 0 2 11 6 10 6 3 63
100 97 74 88 78 93 58 47 76 40 69 29 61 100 100 100 100 94 81 100 100 25 5 5 5 5 6 5 6 94 100 16 0 0 0 0 0 0 0 0 1 13 4 3 5 2 5 42 40
100 93 96 100 100 100 92 58 95 100 94 100 50 76 100 100 100 82 7 5 2 1 0 0 0 0 2 2 35 5 0 0 0 0 0 0 0 0 0 0 1 0 0 0 4 2 0 5 27
71 100 100 100 100 100 71 100 100 98 89 100 55 91 100 100 18 4 5 0 0 0 0 0 0 0 0 3 0 0 0 0 0 0 0 1 4 4 0 0 0 0 0 0 0 0 2 4 65
8 57 100 100 100 100 79 100 78 100 5 81 95 100 97 74 8 2 0 0 0 0 0 2 0 0 0 0 0 0 0 0 0 0 8 5 5 0 0 0 3 0 0 0 0 0 4 5 65
30 35 96 100 78 100 100 100 100 100 99 96 95 98 50 15 5 0 0 0 0 0 0 0 0 0 0 0 0 0 0 0 0 31 7 0 7 5 5 0 0 0 0 0 0 0 1 89 93
68 12 100 100 100 97 100 96 70 98 100 100 100 100 65 5 5 0 0 0 0 0 0 0 0 0 0 0 0 0 0 0 36 31 4 6 84 16 8 5 0 0 0 0 0 0 0 4 5
34 15 100 100 100 100 100 100 100 100 100 100 100 6 0 0 0 0 1 14 25 21 1 0 0 0 0 0 0 0 0 1 100 100 46 18 21 36 58 5 4 0 0 0 0 0 0 1 2
29 10 72 100 100 100 100 100 100 100 100 100 100 7 0 0 0 0 26 60 45 34 44 7 6 1 12 0 0 0 0 9 100 100 70 94 85 33 10 62 4 0 0 0 0 1 0 0 0
78 31 2 9 27 5 5 7 34 80 86 76 22 0 0 0 0 0 0 7 6 8 29 37 11 11 4 0 6 25 8 5 60 99 100 100 100 14 5 5 5 1 0 0 0 0 68 3 0
0 7 50 48 99 72 26 4 4 4 0 0 0 0 0 0 0 0 0 0 0 8 0 12 12 17 10 0 16 16 5 13 23 12 0 1 11 5 5 5 15 6 0 0 0 22 100 66 86
6 5 16 5 30 27 58 5 5 48 2 0 0 0 0 0 0 0 0 0 0 0 0 0 2 1 1 0 13 28 13 2 0 0 2 3 2 3 5 5 7 4 6 2 70 80 100 100 100
61 6 5 5 77 57 17 14 8 17 32 5 0 0 0 0 0 0 0 0 0 0 0 0 0 0 0 0 0 3 0 0 0 0 0 0 0 3 2 0 0 0 3 45 58 38 90 100 65
5 5 5 5 56 5 12 4 24 28 95 100 0 0 0 0 0 0 0 0 2 0 0 0 0 0 0 0 0 0 0 0 0 17 95 17 24 0 4 0 0 0 0 0 0 79 2 57 59
1 4 5 4 3 5 0 0 0 13 18 5 6 0 0 0 0 0 0 0 1 0 0 0 0 0 0 0 0 0 0 0 0 5 0 41 0 0 0 0 0 0 0 0 0 0 0 61 100
0 0 0 2 0 0 0 0 2 9 31 25 0 0 0 0 0 0 0 0 0 0 0 0 0 0 0 0 0 0 0 0 0 0 0 0 0 0 0 0 0 0 0 0 0 0 0 0 1
0 0 5 4 0 0 6 1 21 78 100 69 0 0 0 0 0 0 0 0 0 0 0 0 0 0 3 0 0 0 1 0 0 0 0 0 0 0 0 0 0 0 0 0 0 0 0 0 0
0 0 0 0 2 0 45 0 0 64 100 99 5 0 0 0 0 0 0 0 0 0 0 0 3 5 0 0 0 0 0 0 0 0 0 0 0 0 0 0 0 0 0 0 0 0 0 0 0
0 0 0 3 6 0 1 4 1 5 100 90 5 2 0 0 0 0 0 0 0 0 0 0 3 0 0 0 0 0 0 0 0 0 0 0 0 0 0 0 0 0 0 0 0 0 0 0 0
0 0 0 0 5 3 5 2 2 1 64 20 5 33 0 0 0 0 0 0 0 0 0 0 0 0 0 0 0 1 0 0 1 0 0 0 0 0 0 0 0 0 0 0 0 0 0 0 1
0 0 0 3 24 41 0 0 0 2 5 0 5 3 0 0 0 0 0 0 0 0 0 0 0 0 0 0 0 0 0 0 0 0 0 0 0 0 23 0 0 0 8 0 0 0 0 0 5
0 0 0 0 5 5 0 0 0 0 0 3 5 5 100 7 0 0 0 0 0 0 0 0 0 0 0 0 0 0 0 0 0 0 0 0 0 0 16 0 0 0 2 0 0 0 0 0 0
0 0 0 0 5 2 0 0 0 0 0 0 0 0 5 44 5 0 0 0 0 0 0 0 0 0 0 0 0 0 0 0 2 0 0 0 7 3 0 0 0 0 0 0 0 0 0 0 0
0 0 0 0 0 8 0 0 0 0 0 0 0 5 1 4 7 51 4 25 0 0 0 0 0 0 0 0 0 0 0 0 0 0 0 0 11 21 2 0 0 0 0 0 0 0 0 0 0
0 0 0 0 0 0 0 1 0 0 0 0 4 21 5 39 5 12 68 5 4 0 0 0 0 0 0 0 0 0 0 0 0 0 0 0 0 0 0 0 0 0 0 0 0 0 0 3 1
0 0 0 0 0 0 0 2 0 0 0 0 5 5 79 100 60 94 5 5 5 2 4 0 0 0 0 0 0 0 0 0 0 0 0 0 0 0 0 0 0 0 0 0 0 4 1 5 5
0 0 0 0 0 0 0 0 0 0 0 0 2 0 0 1 3 5 5 5 5 11 2 0 0 0 0 0 0 0 0 0 0 0 0 0 0 0 0 0 0 0 0 0 0 0 2 5 6
0 0 0 0 0 0 0 0 0 0 0 0 0 0 0 0 0 0 5 83 85 45 76 1 0 0 0 0 0 0 0 0 0 0 0 0 0 0 0 0 0 0 0 0 1 0 4 48 91
0 0 0 0 0 0 0 0 0 0 0 0 0 0 0 0 0 0 63 43 5 17 43 5 70 63 0 0 0 0 0 0 0 0 0 0 0 0 0 0 0 0 0 0 0 0 96 100 92